Regional Weather Roundup
Issued by NWS

Home | Current Version | Previous Version | Graphics & Text | Print | Product List | Glossary On
Versions: 1 2 3 4 5 6 7 8 9 10 11 12 13 14 15 16 17 18 19 20 21 22 23 24 25 26 27 28 29 30 31 32 33 34 35 36 37 38 39 40 41 42 43 44 45 46 47 48 49 50
000
ASUS43 KLOT 141703
RWRIL

ILLINOIS REGIONAL WEATHER ROUNDUP
NATIONAL WEATHER SERVICE CHICAGO/ROMEOVILLE IL
1100 AM CST THU DEC 14 2017

NOTE: "FAIR" INDICATES FEW OR NO CLOUDS BELOW 12,000 FEET WITH NO
SIGNIFICANT WEATHER AND/OR OBSTRUCTIONS TO VISIBILITY.

* THESE STATIONS ARE NOT UNDER NWS QUALITY CONTROL. THEY ALSO MAY NOT
  REPORT WEATHER SUCH AS PRECIPITATION OR FOG.

ILZ001-002-007-009-015-016-024-141800-
NORTHWEST ILLINOIS

CITY           SKY/WX    TMP DP  RH WIND       PRES   REMARKS
MOLINE         CLOUDY    26  14  60 CALM      30.10F
STERLING*      SUNNY     24  13  62 N5        30.11F WCI  18
SAVANNA*       MOSUNNY   24  10  53 CALM      30.11F
$$

ILZ003-004-008-010-011-017-018-141800-
NORTH CENTRAL ILLINOIS

CITY           SKY/WX    TMP DP  RH WIND       PRES   REMARKS
ROCKFORD       PTSUNNY   23  10  57 NW5       30.11S WCI  17
FREEPORT*      CLOUDY    21  11  66 CALM      30.11S
ROCHELLE*      MOSUNNY   22  11  62 N5        30.10S WCI  16
DE KALB*       MOSUNNY   22  12  65 N6        30.08S WCI  15
PERU*          CLOUDY    22  10  61 N7        30.10F WCI  13
$$

ILZ005-006-012>014-019>023-141800-
NORTHEAST ILLINOIS

CITY           SKY/WX    TMP DP  RH WIND       PRES   REMARKS
CHICAGO-OHARE  PTSUNNY   25   9  50 N8        30.07S WCI  16
CHICAGO-MIDWAY PTSUNNY   25  13  60 N6        30.07F WCI  18
AURORA         SUNNY     24  11  57 N9        30.08F WCI  14
LANSING*       PTSUNNY   23  16  74 CALM      30.08F
JOLIET*        CLOUDY    24  13  62 CALM      30.09F
WAUKEGAN       MOSUNNY   23  11  60 NW7       30.07S WCI  15
DUPAGE AIRPORT SUNNY     24  12  60 N5        30.07S WCI  18
KANKAKEE*      CLOUDY    26  15  61 N3        30.08F
WHEELING       MOSUNNY   25  12  58 N7        30.09S WCI  17
MORRIS*        CLOUDY    23  12  62 NE5       30.08F WCI  17
ROMEOVILLE*    CLOUDY    23  13  64 N6        30.08F WCI  16
NORTHERLY ISL    N/A     27  18  69 N7          N/A  WCI  20
$$

LMZ740>746-141800-
SOUTHERN LAKE MICHIGAN

STATION/POSITION SKY/WX   TEMP    WIND        PRES    VSBY  WAVE
                          AIR SEA DIR/SP/G                  HT/PER
                          (F)     (DEG/KT/KT) (MB)    (MI)  (FT/S)
HARRISON CRIB              26     330/ 14/ 15   N/A
BURNHAM HARBOR             27      20/  8/  8   N/A
CALUMET HARBOR             24     260/  5/  7 1018.0F
BURNS HARBOR               24     190/  7/ 12 1018.6S
MICHIGAN CITY              20     150/ 11/ 12   N/A
$$

ILZ025>027-034>036-040-047-049-050-058-095>099-141800-
WEST-CENTRAL ILLINOIS

CITY           SKY/WX    TMP DP  RH WIND       PRES   REMARKS
QUINCY         CLOUDY    28  16  60 N7        30.10S WCI  21
GALESBURG*     MOSUNNY   27  17  65 E5        30.11F WCI  22
MACOMB*        CLOUDY    26  17  67 CALM      30.13F
JACKSONVILLE*  CLOUDY    28  17  62 CALM      30.11S
PITTSFIELD*    CLOUDY    28  17  63 NW7       30.11F WCI  21
$$

ILZ028>032-037-038-041>044-048-051>054-059>061-141800-
CENTRAL ILLINOIS

CITY           SKY/WX    TMP DP  RH WIND       PRES   REMARKS
PONTIAC        CLOUDY    26  14  61 N6        30.10S WCI  19
BLOOMINGTON    SUNNY     26  14  60 N8        30.09S WCI  18
DECATUR        CLOUDY   N/A N/A N/A MISG      30.09F
PEORIA         MOSUNNY   28  12  51 VRB5      30.11S WCI  23
LACON*         CLOUDY    24  11  57 NW5       30.11S WCI  18
LINCOLN*       MOSUNNY   28  15  59 N5        30.11S WCI  22
SPRINGFIELD    MOSUNNY   32  19  58 N9        30.11S WCI  24
TAYLORVILLE    MOSUNNY   28  18  64 N7        30.10F WCI  21
$$

ILZ033-039-045-046-055>057-062-063-141800-
EAST-CENTRAL ILLINOIS

CITY           SKY/WX    TMP DP  RH WIND       PRES   REMARKS
CHAMPAIGN      MOSUNNY   30  16  56 VRB6      30.08S WCI  24
DANVILLE*      MOSUNNY   28  20  71 CALM      30.05F
RANTOUL*       SUNNY     29  18  63 NE3       30.08S
MATTOON        CLOUDY    28  19  69 N7        30.07F WCI  21
PARIS*         CLOUDY    29  22  74 NE5       30.08F WCI  24
$$

ILZ079-100>102-141800-
SOUTHWEST ILLINOIS

CITY           SKY/WX    TMP DP  RH WIND       PRES   REMARKS
ALTON          CLOUDY    30  19  64 N7        30.12R WCI  23
BELLEVILLE     CLOUDY    32  17  55 N7        30.10R WCI  25
CAHOKIA*       CLOUDY    32  17  54 N6        30.11R WCI  26
SPARTA*        CLOUDY    31  21  66 N6        30.11F WCI  26
$$

ILZ064>066-069>071-074>076-080>082-084>086-088>090-092>094-141800-
SOUTH-CENTRAL ILLINOIS

CITY           SKY/WX    TMP DP  RH WIND       PRES   REMARKS
CARBONDALE     CLOUDY    33  21  61 N7        30.10R WCI  27
CAIRO*         CLOUDY    36  25  64 NE7       30.09F WCI  30
EFFINGHAM*     CLOUDY    30  21  69 N5        30.11S WCI  25
MARION         CLOUDY    34  21  60 N9        30.10R WCI  26
MT. VERNON     CLOUDY    32  19  58 NE3       30.09S
CENTRALIA*     PTSUNNY   33  21  61 N6        30.08F WCI  28
SALEM*         PTSUNNY   33  19  56 N5        30.09S WCI  29
METROPOLIS*    CLOUDY    34  22  61 N6        30.10R WCI  29
$$

ILZ067-068-072-073-078-083-087-091-141800-
SOUTHEAST ILLINOIS

CITY           SKY/WX    TMP DP  RH WIND       PRES   REMARKS
LAWRENCEVILLE  CLOUDY    34  22  61 N9        30.08S WCI  27
FLORA*         CLOUDY    32  21  62 N7        30.09F WCI  26
FAIRFIELD*     CLOUDY    33  20  59 N3        30.08S
HARRISBURG*    PTSUNNY   33  21  60 N9        30.09S WCI  26
ROBINSON*      CLOUDY    32  22  66 N6        30.09S WCI  26
CARMI*         CLOUDY    33  21  62 N8        30.08S WCI  26
$$

ABBREVIATIONS USED IN REMARKS
   TC - TEMPERATURE IN CELSIUS
  WCI - WIND CHILL INDEX
   HX - HEAT INDEX
  VSB - VISIBILITY
$$




USA.gov is the U.S. government's official web portal to all federal, state and local government web resources and services.